Weather in Ostrolenskiy

Russia / Chelyabinsk Oblast     53°41′03″N   59°43′29″E
В апреле 2022 года жителям России запретили посещать сайт meteo.paraplan.net по решению Генеральной прокуратуры. Аудитория сайта уменьшилась в 10 раз. Владельцы сайта не видят смысла в поддержке погодного сервера в таких условиях. Сайт будет закрыт в октябре.
temp.,
°C
wind,
m/s
gust,
m/s
humid.,
%
clouds,
%
prec.,
mm/h
press.,
hPa
HPBL,
m
30 september, fri
fri3023:000se4899100 2.6 1028293
02:00−1se5997100 0.9 1029440
05:000se4995100 1.6 1030430
08:00−1ese4896100 0.2 1031436
11:000se5892100 0.4 1032533
14:00+1se468699 0.1 1033624
17:00+3sse268694 0.2 1033662
20:00+1nnw119491 0.0 103412
1 october, sat
sat123:00+1ese129096 0.0 103446
02:00+1sse2683100 0.0 1035171
05:00+1s278198 0.0 1035276
08:00+1s287899 0.0 1035348
11:00+3s3774100 0.0 1035587
14:00+4s4775100 0.0 1035699
17:00+3s3874100 0.0 1034402
20:00+2ssw2676100 0.0 1034211
2 october, sun
sun223:00+2ssw387579 0.0 1033241
02:00+2ssw3107399 0.0 1032285
05:00+2ssw4107297 0.0 1032253
08:00+3s41073100 0.0 1031325
11:00+5ssw51059100 0.0 1031445
14:00+6ssw595597 0.0 1030471
17:00+6s41059100 0.0 1030410
20:00+3s387127 0.0 1030155
3 october, mon
mon323:00+4ssw397092 0.0 1029212
02:00+4ssw396498 0.0 1028228
05:00+4ssw396283 0.0 1028201
08:00+4ssw396085 0.0 1028184
11:00+9ssw5843100 0.0 1028359
14:00+10ssw5738100 0.0 1028451
17:00+10sw4641100 0.0 1028453
20:00+6ssw36575 0.0 103096
4 october, tue
tue423:00+5sw35585 0.0 103176
02:00+4sw34615 0.0 103153
05:00+4sw33633 0.0 103239
08:00+4sw33615 0.0 103350
11:00+10ssw33415 0.0 1033333
14:00+14ssw34330 0.0 1033797
17:00+13ssw33350 0.0 1033401
20:00+7wsw12574 0.0 103510